Location: Carbonear
(47.7333°N, 53.2500°W)
Time: 21:39:04
(UTC+00:00)

STRAND 1 - Pass Details

Date: 07 December 2022
Orbit: 768 x 779 km, 98.4° (Epoch: 01 February)

Event Time Altitude Azimuth Distance (km) Brightness Sun altitude
Rises 07:51:30 0° 115° (ESE) 3,245 ? -32.0°
Reaches altitude 10° 07:54:34 10° 96° (E) 2,320 ? -31.4°
Maximum altitude 07:57:45 17° 57° (ENE) 1,887 ? -30.9°
Drops below altitude 10° 08:00:55 10° 18° (NNE) 2,325 ? -30.4°
Enters shadow 08:03:24 - 2° (N) 3,057 ? -30.0°
